Location: London
(42.9830°N, 81.2500°W)
Time: 01:18:06
(UTC-04:00)

Amateur Radio Satellites - All Passes

Search period start: 25 May 2016 00:48
Search period end: 26 May 2016 00:48
Location: London, 42.9830°N, 81.2500°W

Satellite Date Start Highest point End Downlink Frequencies (MHz)
Time Altitude Azimuth
UNISAT 6 25 May 00:50:21 00:53:54 25° 292° (WNW) 00:57:26 437.425
ISS 25 May 00:51:34 00:54:33 32° 338° (NNW) 00:57:33 145.825
TIGRISAT 25 May 00:59:13 01:02:31 22° 293° (WNW) 01:05:51 435.000
UKube-1 25 May 01:01:25 01:05:30 40° 261° (W) 01:09:38 .
ESTCUBE 1 25 May 01:01:49 01:05:18 22° 266° (W) 01:08:49 437.505/2401.250
PHONESAT 2.4 25 May 01:03:21 01:06:15 35° 165° (SSE) 01:09:09 2401.200-2431.200
BUGSAT 1 25 May 01:10:44 01:14:37 43° 99° (E) 01:18:26 437.445
POPSAT HIP 1 25 May 01:13:16 01:17:28 73° 285° (WNW) 01:21:38 437.405
QB50P1 25 May 01:14:00 01:18:12 70° 285° (WNW) 01:22:22 145.935-145.965
QB50P2 25 May 01:15:10 01:19:20 65° 286° (WNW) 01:23:29 145.880/145.840
POLYITAN 1 25 May 01:17:37 01:21:46 63° 286° (WNW) 01:25:54 437.675
TISAT 1 25 May 01:19:40 01:23:45 50° 72° (ENE) 01:27:52 437.305
DANDE 25 May 01:19:43 01:27:44 50° 269° (W) 01:35:17 436.750
AIST 2 25 May 01:24:00 01:26:40 17° 249° (WSW) 01:29:20 435.215
ANTELSAT 25 May 01:34:14 01:34:51 10° 300° (WNW) 01:35:29 437.575/2403.000
NANOSAT C BR1 25 May 01:34:28 01:38:27 43° 288° (WNW) 01:42:25 145.865
VELOX 1 25 May 01:38:58 01:41:06 13° 270° (W) 01:43:15 145.980
CUBEBUG 1 25 May 01:40:47 01:42:39 12° 270° (W) 01:44:32 437.445
DX 1 25 May 01:44:41 01:46:41 13° 270° (W) 01:48:42 434.975-435.025
CUSAT 1 25 May 01:58:34 02:02:06 14° 285° (WNW) 02:05:26 437.405
Oscar 19 25 May 02:05:57 02:10:14 26° 94° (E) 02:14:29 437.125/150
Gurwin Techsat 1B 25 May 02:06:13 02:07:03 10° 87° (E) 02:07:54 435.225
SWISSCUBE 25 May 02:07:08 02:11:27 36° 68° (ENE) 02:15:48 437.505
SO-50 25 May 02:10:04 02:14:59 82° 122° (ESE) 02:19:54 436.795
ITUPSAT 1 25 May 02:11:34 02:15:52 35° 68° (ENE) 02:20:12 437.325
DUCHIFAT 1 25 May 02:15:31 02:18:22 18° 295° (WNW) 02:21:13 145.980
RS-15 25 May 02:18:24 02:30:14 50° 42° (NE) 02:42:06 29.354- 29.394
SPROUT 25 May 02:23:14 02:24:09 11° 271° (W) 02:25:06 437.525
ISS 25 May 02:29:23 02:31:43 18° 358° (N) 02:34:01 145.825
JAS-2 25 May 02:30:20 02:38:02 86° 102° (ESE) 02:44:55 435.910
BEESAT 25 May 02:36:47 02:41:28 64° 73° (ENE) 02:46:12 436.000
PHONESAT 2.4 25 May 02:39:43 02:42:47 54° 182° (S) 02:45:51 2401.200-2431.200
BUGSAT 1 25 May 02:47:05 02:49:40 16° 296° (WNW) 02:52:12 437.445
KKS-1 25 May 02:49:13 02:50:41 11° 59° (ENE) 02:52:09 437.445
YUBILEINY 25 May 02:56:54 03:03:47 25° 64° (ENE) 03:10:39 435.215
TISAT 1 25 May 02:57:18 02:59:42 15° 269° (W) 03:02:05 437.305
STARS 25 May 03:31:55 03:34:40 16° 63° (ENE) 03:37:24 437.465
Gurwin Techsat 1B 25 May 03:42:25 03:47:47 85° 105° (ESE) 03:53:06 435.225
Oscar 19 25 May 03:44:52 03:49:40 40° 292° (WNW) 03:54:26 437.125/150
SWISSCUBE 25 May 03:45:25 03:49:18 25° 265° (W) 03:53:15 437.505
ITUPSAT 1 25 May 03:49:49 03:53:45 26° 265° (W) 03:57:44 437.325
AO-7 25 May 03:51:51 03:57:49 21° 91° (E) 04:03:44 29.400- 29.500
SO-50 25 May 03:52:36 03:56:04 19° 322° (NW) 03:59:32 436.795
Cosmos 2491 25 May 03:52:57 03:59:42 25° 80° (E) 04:06:26 435.465 / 435.565
Cosmos 2504 25 May 03:59:58 04:05:13 18° 61° (ENE) 04:10:38 435.465 / 435.565
ISS 25 May 04:06:06 04:08:56 26° 18° (NNE) 04:11:45 145.825
MOZHAYETS 4 25 May 04:15:20 04:19:49 59° 73° (ENE) 04:24:19
PHONESAT 2.4 25 May 04:16:30 04:19:17 30° 198° (SSW) 04:22:04 2401.200-2431.200
JAS-2 25 May 04:16:33 04:22:00 22° 305° (NW) 04:27:10 435.910
BEESAT 25 May 04:17:12 04:19:42 14° 270° (W) 04:22:13 436.000
ITAMSAT 1 25 May 04:19:15 04:24:29 74° 103° (ESE) 04:29:42 435.822/435.867
KKS-1 25 May 04:22:06 04:26:35 82° 257° (WSW) 04:31:05 437.445
RS-15 25 May 04:31:14 04:43:12 61° 246° (WSW) 04:55:07 29.354- 29.394
YUBILEINY 25 May 04:52:47 05:01:31 76° 266° (W) 05:10:15 435.215
STARS 25 May 05:06:17 05:10:37 53° 260° (W) 05:14:57 437.465
Gurwin Techsat 1B 25 May 05:24:13 05:27:00 15° 302° (WNW) 05:29:47 435.225
CUBESAT XI-V 25 May 05:32:29 05:36:54 44° 71° (ENE) 05:41:21 437.345
HORYU 2 25 May 05:39:17 05:43:12 30° 97° (E) 05:47:07 437.375
ISS 25 May 05:42:21 05:45:36 64° 217° (SW) 05:48:49 145.825
AO-7 25 May 05:43:05 05:51:30 85° 290° (WNW) 05:59:53 29.400- 29.500
Cosmos 2491 25 May 05:46:51 05:55:40 72° 280° (W) 06:04:31 435.465 / 435.565
Cosmos 2504 25 May 05:51:32 05:59:54 80° 81° (E) 06:08:43 435.465 / 435.565
MOZHAYETS 4 25 May 05:54:58 05:57:23 14° 270° (W) 05:59:47
AO-85 25 May 06:00:00 06:00:57 10° 105° (ESE) 06:01:54 145.980
ITAMSAT 1 25 May 06:00:14 06:03:21 16° 301° (WNW) 06:06:28 435.822/435.867
BRITE-PL 25 May 06:22:43 06:25:16 14° 86° (E) 06:27:43 437.365/2234.400
Cubesat XI-IV 25 May 06:26:58 06:29:26 13° 89° (E) 06:31:54 437.490
NOAA 15 25 May 06:31:41 06:35:44 22° 93° (E) 06:39:44 137.62
LilacSat-2 25 May 06:45:26 06:47:29 14° 92° (E) 06:49:31 437.200
RS-15 25 May 06:48:27 06:52:56 13° 268° (W) 06:57:25 29.354- 29.394
YUBILEINY 25 May 06:52:28 06:56:44 15° 286° (WNW) 07:00:59 435.215
GOMX 1 25 May 07:02:23 07:04:54 14° 88° (E) 07:07:19 467.674
CUBESAT XI-V 25 May 07:11:05 07:14:29 20° 268° (W) 07:17:55 437.345
CUTE-I 25 May 07:12:20 07:17:14 35° 97° (E) 07:22:06 437.470
HORYU 2 25 May 07:15:58 07:19:40 26° 293° (WNW) 07:23:21 437.375
STRAND 1 25 May 07:17:10 07:22:00 46° 70° (ENE) 07:26:53 437.568
AO-85 25 May 07:35:09 07:40:36 73° 121° (ESE) 07:45:57 145.980
AO-7 25 May 07:37:15 07:43:08 22° 310° (NW) 07:49:01 29.400- 29.500
NOAA 18 25 May 07:39:30 07:44:58 72° 103° (ESE) 07:50:27 137.9125
Cosmos 2504 25 May 07:46:24 07:52:24 22° 280° (W) 07:58:38 435.465 / 435.565
Cosmos 2491 25 May 07:49:24 07:54:18 16° 303° (WNW) 07:59:14 435.465 / 435.565
BRITE-PL 25 May 07:59:09 08:04:26 72° 285° (WNW) 08:09:15 437.365/2234.400
DOVE 4 25 May 08:04:44 08:08:33 27° 94° (E) 08:12:12 437.250
Cubesat XI-IV 25 May 08:04:45 08:10:08 81° 286° (WNW) 08:15:30 437.490
NOAA 15 25 May 08:10:38 08:15:46 50° 290° (WNW) 08:20:51 137.62
HO-68 25 May 08:15:30 08:20:16 19° 90° (E) 08:25:00 435.675
LilacSat-2 25 May 08:18:26 08:22:00 40° 287° (WNW) 08:25:33 437.200
PRISM 25 May 08:28:11 08:32:04 41° 71° (ENE) 08:35:59 437.425
CUTE 1.7 + AOD 2 25 May 08:34:58 08:37:44 17° 92° (E) 08:40:31 437.475
GOMX 1 25 May 08:38:46 08:43:31 59° 287° (WNW) 08:47:56 467.674
Cosmos 2499 25 May 08:43:12 08:48:20 17° 60° (ENE) 08:53:32 435.465 / 435.565
GONETS M04 25 May 08:46:22 08:53:39 28° 66° (ENE) 09:00:52
CUTE-I 25 May 08:52:30 08:57:11 32° 294° (WNW) 09:01:53 437.470
CINEMA 3 25 May 08:56:08 08:59:46 28° 95° (E) 09:03:21 145.822/145.860
STRAND 1 25 May 08:57:30 09:01:24 22° 267° (W) 09:05:21 437.568
AIST 1 25 May 08:59:31 09:03:41 42° 77° (ENE) 09:07:47
SO-50 25 May 09:01:28 09:04:33 17° 36° (NE) 09:07:34 436.795
AUBIESAT-1 25 May 09:06:41 09:09:36 28° 102° (ESE) 09:12:29 437.475
COMPASS 1 25 May 09:06:53 09:09:56 19° 93° (E) 09:12:58 437.405
M-CUBED/EXP-1 PRIME 25 May 09:10:41 09:13:50 39° 104° (ESE) 09:16:54 437.505
AAUSAT CUBESAT 2 25 May 09:12:23 09:15:15 18° 92° (E) 09:18:06 437.432
AO-85 25 May 09:17:20 09:21:37 23° 319° (NW) 09:25:49 145.980
NOAA 18 25 May 09:21:31 09:25:02 18° 301° (WNW) 09:28:34 137.9125
O/OREOS (USA 219) 25 May 09:31:22 09:31:57 10° 97° (E) 09:32:34 437.305
BRITE-PL 25 May 09:41:05 09:41:48 10° 305° (NW) 09:42:30 437.365/2234.400
CANX-2 25 May 09:41:44 09:46:02 79° 283° (WNW) 09:50:19 2200.000
DOVE 4 25 May 09:42:26 09:46:13 27° 293° (WNW) 09:49:50 437.250
Cubesat XI-IV 25 May 09:47:16 09:49:21 12° 304° (WNW) 09:51:26 437.490
SEEDS 25 May 09:50:07 09:54:23 82° 102° (ESE) 09:58:38 437.485
HO-68 25 May 10:01:33 10:08:45 83° 289° (WNW) 10:15:57 435.675
Oscar 11 25 May 10:02:38 10:06:17 26° 95° (E) 10:09:54 145.826/435.025
CUBEBUG 2 25 May 10:04:10 10:08:13 50° 100° (E) 10:12:17 437.445
PRISM 25 May 10:04:48 10:07:34 17° 267° (W) 10:10:21 437.425
DELFI C3 25 May 10:06:25 10:08:13 13° 90° (E) 10:09:59 145.870
CUTE 1.7 + AOD 2 25 May 10:09:44 10:13:48 44° 288° (WNW) 10:17:53 437.475
ZACube-1 25 May 10:11:16 10:14:52 27° 96° (E) 10:18:29 437.345
UNISAT 6 25 May 10:13:16 10:17:04 30° 69° (ENE) 10:20:51 437.425
TIGRISAT 25 May 10:21:37 10:25:34 34° 70° (ENE) 10:29:29 435.000
CINEMA 3 25 May 10:33:25 10:36:50 24° 293° (WNW) 10:40:11 145.822/145.860
Cosmos 2499 25 May 10:34:22 10:42:54 75° 80° (E) 10:51:47 435.465 / 435.565
QB50P2 25 May 10:36:15 10:37:16 11° 61° (ENE) 10:38:18 145.880/145.840
AIST 1 25 May 10:38:07 10:40:54 17° 274° (W) 10:43:39
POLYITAN 1 25 May 10:38:33 10:39:42 11° 61° (ENE) 10:40:51 437.675
UWE-3 25 May 10:38:34 10:42:45 85° 105° (ESE) 10:46:58 435.000/436.395/437.385
SO-50 25 May 10:40:59 10:45:44 89° 238° (WSW) 10:50:18 436.795
COMPASS 1 25 May 10:41:43 10:45:37 37° 289° (WNW) 10:49:31 437.405
AUBIESAT-1 25 May 10:41:46 10:43:57 17° 299° (WNW) 10:46:06 437.475
GONETS M04 25 May 10:42:33 10:51:09 66° 267° (W) 10:59:42
HUMSAT D 25 May 10:44:21 10:46:53 16° 92° (E) 10:49:26 437.325/437.525
M-CUBED/EXP-1 PRIME 25 May 10:46:41 10:48:05 12° 302° (WNW) 10:49:28 437.505
AAUSAT CUBESAT 2 25 May 10:46:58 10:50:54 40° 288° (WNW) 10:54:50 437.432
FUNcube-1 25 May 10:50:29 10:54:39 72° 101° (E) 10:58:52 145.935
PCSat 25 May 10:50:43 10:55:56 51° 114° (ESE) 11:01:11 145.827
NANOSAT C BR1 25 May 10:53:25 10:55:50 15° 63° (ENE) 10:58:15 145.865
ANTELSAT 25 May 10:53:55 10:58:18 81° 76° (ENE) 11:02:38 437.575/2403.000
JAS-2 25 May 11:04:20 11:05:35 10° 45° (NE) 11:06:50 435.910
O/OREOS (USA 219) 25 May 11:06:05 11:10:39 80° 292° (WNW) 11:15:14 437.305
SEEDS 25 May 11:28:42 11:29:26 10° 299° (WNW) 11:30:10 437.485
DUCHIFAT 1 25 May 11:31:40 11:35:29 34° 70° (ENE) 11:39:20 145.980
CUSAT 1 25 May 11:36:01 11:40:27 20° 79° (E) 11:45:28 437.405
Oscar 11 25 May 11:38:37 11:42:23 30° 291° (WNW) 11:46:09 145.826/435.025
DELFI C3 25 May 11:39:27 11:43:24 53° 287° (WNW) 11:47:19 145.870
CUBEBUG 2 25 May 11:42:04 11:44:28 15° 296° (WNW) 11:46:51 437.445
ZACube-1 25 May 11:47:37 11:51:05 26° 292° (WNW) 11:54:34 437.345
UNISAT 6 25 May 11:50:07 11:53:46 26° 265° (W) 11:57:25 437.425
HO-68 25 May 11:50:57 11:55:27 18° 308° (NW) 11:59:56 435.675
CUBEBUG 1 25 May 11:51:48 11:53:02 11° 89° (E) 11:54:14 437.445
VELOX 1 25 May 11:51:49 11:52:48 11° 89° (E) 11:53:45 145.980
TIGRISAT 25 May 11:58:54 12:02:20 22° 266° (W) 12:05:44 435.000
BUGSAT 1 25 May 12:01:06 12:04:56 35° 70° (ENE) 12:08:45 437.445
POPSAT HIP 1 25 May 12:06:11 12:10:26 89° 244° (WSW) 12:14:42 437.405
QB50P1 25 May 12:06:51 12:11:06 86° 252° (WSW) 12:15:22 145.935-145.965
QB50P2 25 May 12:08:12 12:12:27 79° 257° (WSW) 12:16:43 145.880/145.840
POLYITAN 1 25 May 12:10:39 12:14:54 77° 258° (WSW) 12:19:09 437.675
HUMSAT D 25 May 12:18:47 12:22:44 44° 288° (WNW) 12:26:43 437.325/437.525
SO-50 25 May 12:24:54 12:25:23 10° 254° (WSW) 12:25:53 436.795
AISAT 25 May 12:25:12 12:28:57 26° 95° (E) 12:32:39 437.250
NANOSAT C BR1 25 May 12:27:00 12:31:09 53° 260° (W) 12:35:18 145.865
Cosmos 2499 25 May 12:28:44 12:35:13 25° 279° (W) 12:41:52 435.465 / 435.565
FUNcube-1 25 May 12:29:07 12:30:21 11° 298° (WNW) 12:31:37 145.935
SPROUT 25 May 12:30:58 12:32:12 11° 89° (E) 12:33:27 437.525
PCSat 25 May 12:34:59 12:39:35 28° 313° (NW) 12:44:14 145.827
BEESAT 3 25 May 12:35:07 12:38:44 37° 117° (ESE) 12:42:24 437.485
JAS-2 25 May 12:41:44 12:48:36 46° 66° (ENE) 12:55:58 435.910
GONETS M04 25 May 12:43:25 12:46:08 12° 288° (WNW) 12:48:52
DANDE 25 May 12:46:53 12:51:29 32° 85° (E) 12:57:19 436.750
UKube-1 25 May 12:47:38 12:51:26 29° 96° (E) 12:55:11 .
O/OREOS (USA 219) 25 May 12:49:38 12:50:50 11° 313° (NW) 12:52:03 437.305
ESTCUBE 1 25 May 12:52:00 12:56:34 73° 102° (ESE) 13:01:06 437.505/2401.250
50 SAT 25 May 12:57:55 13:01:39 69° 103° (ESE) 13:05:20 437.505
DUCHIFAT 1 25 May 13:08:03 13:11:16 21° 266° (W) 13:14:29 145.980
CUSAT 1 25 May 13:15:22 13:21:28 75° 283° (WNW) 13:29:04 437.405
Oscar 19 25 May 13:23:23 13:28:15 42° 69° (ENE) 13:33:07 437.125/150
VELOX 1 25 May 13:25:20 13:29:47 74° 284° (WNW) 13:34:10 145.980
CUBEBUG 1 25 May 13:25:25 13:29:48 70° 285° (WNW) 13:34:08 437.445
Gurwin Techsat 1B 25 May 13:26:27 13:30:18 21° 62° (ENE) 13:34:08 435.225
DX 1 25 May 13:29:02 13:33:25 80° 285° (WNW) 13:37:46 434.975-435.025
BEESAT 2 25 May 13:32:22 13:36:20 89° 123° (ESE) 13:40:21 435.950
BUGSAT 1 25 May 13:37:11 13:40:23 21° 266° (W) 13:43:34 437.445
ITAMSAT 1 25 May 14:01:10 14:04:26 17° 60° (ENE) 14:07:44 435.822/435.867
AISAT 25 May 14:01:33 14:05:24 30° 292° (WNW) 14:09:14 437.250
Cosmos 2491 25 May 14:02:22 14:05:54 13° 54° (NE) 14:09:24 435.465 / 435.565
SPROUT 25 May 14:04:22 14:08:36 66° 286° (WNW) 14:12:49 437.525
BEESAT 3 25 May 14:13:20 14:16:32 23° 315° (NW) 14:19:46 437.485
UKube-1 25 May 14:23:46 14:27:23 26° 293° (WNW) 14:30:59 .
JAS-2 25 May 14:26:55 14:33:37 40° 265° (W) 14:40:52 435.910
AO-85 25 May 14:27:34 14:30:17 15° 33° (NNE) 14:32:52 145.980
DANDE 25 May 14:29:04 14:34:06 40° 291° (WNW) 14:40:35 436.750
ESTCUBE 1 25 May 14:30:41 14:32:46 13° 299° (WNW) 14:34:50 437.505/2401.250
BEESAT 25 May 14:37:20 14:40:06 15° 91° (E) 14:42:52 436.000
TISAT 1 25 May 14:38:03 14:42:15 81° 103° (ESE) 14:46:24 437.305
AO-7 25 May 14:51:41 14:58:52 34° 57° (ENE) 15:06:04 29.400- 29.500
CUSAT 1 25 May 15:01:21 15:05:13 16° 306° (NW) 15:09:27 437.405
Oscar 19 25 May 15:03:26 15:07:42 25° 266° (W) 15:11:59 437.125/150
Gurwin Techsat 1B 25 May 15:04:35 15:09:48 57° 259° (W) 15:15:03 435.225
BEESAT 2 25 May 15:12:48 15:14:47 13° 322° (NW) 15:16:45 435.950
AIST 2 25 May 15:20:40 15:24:47 80° 123° (ESE) 15:28:56 435.215
ITAMSAT 1 25 May 15:38:13 15:43:21 68° 258° (WSW) 15:48:32 435.822/435.867
SWISSCUBE 25 May 15:43:26 15:48:15 77° 104° (ESE) 15:53:03 437.505
ITUPSAT 1 25 May 15:48:12 15:53:01 76° 103° (ESE) 15:57:49 437.325
Cosmos 2491 25 May 15:56:12 16:04:54 61° 78° (ENE) 16:13:29 435.465 / 435.565
YUBILEINY 25 May 16:00:13 16:06:59 26° 81° (E) 16:13:46 435.215
AO-85 25 May 16:06:56 16:11:41 76° 55° (NE) 16:15:58 145.980
MOZHAYETS 4 25 May 16:11:04 16:13:17 13° 90° (E) 16:15:29
KKS-1 25 May 16:13:11 16:16:10 18° 92° (E) 16:19:08 437.445
BEESAT 25 May 16:13:33 16:18:17 60° 287° (WNW) 16:22:59 436.000
TISAT 1 25 May 16:16:40 16:17:15 10° 300° (WNW) 16:17:50 437.305
HORYU 2 25 May 16:38:08 16:42:03 32° 69° (ENE) 16:45:59 437.375
AO-7 25 May 16:43:03 16:51:12 60° 256° (WSW) 16:59:27 29.400- 29.500
RS-15 25 May 16:47:12 16:54:57 22° 98° (E) 17:02:54 29.354- 29.394
STARS 25 May 16:55:08 16:58:45 25° 95° (E) 17:02:20 437.465
AIST 2 25 May 17:01:22 17:03:48 15° 321° (NW) 17:06:15 435.215
SWISSCUBE 25 May 17:23:03 17:25:25 14° 300° (WNW) 17:27:47 437.505
ITUPSAT 1 25 May 17:27:48 17:30:14 14° 300° (WNW) 17:32:40 437.325
NOAA 18 25 May 17:28:06 17:32:10 22° 61° (ENE) 17:36:16 137.9125
CUBESAT XI-V 25 May 17:31:10 17:31:46 10° 87° (E) 17:32:23 437.345
BRITE-PL 25 May 17:32:55 17:37:02 21° 62° (ENE) 17:41:12 437.365/2234.400
MOZHAYETS 4 25 May 17:46:17 17:50:53 65° 286° (WNW) 17:55:28
KKS-1 25 May 17:48:44 17:52:58 45° 289° (WNW) 17:57:11 437.445
Cubesat XI-IV 25 May 17:49:07 17:53:22 25° 64° (ENE) 17:57:40 437.490
AO-85 25 May 17:49:44 17:51:20 12° 255° (WSW) 17:52:54 145.980
NOAA 15 25 May 17:52:18 17:57:09 38° 68° (ENE) 18:02:03 137.62
Cosmos 2491 25 May 17:53:54 18:01:07 30° 278° (W) 18:08:17 435.465 / 435.565
YUBILEINY 25 May 17:54:21 18:02:59 68° 281° (W) 18:11:41 435.215
PCSat 25 May 17:56:16 17:58:06 12° 32° (NNE) 17:59:57 145.827
GOMX 1 25 May 18:09:58 18:14:05 22° 64° (ENE) 18:18:09 467.674
HORYU 2 25 May 18:15:00 18:18:38 25° 265° (W) 18:22:17 437.375
STARS 25 May 18:31:16 18:35:08 31° 292° (WNW) 18:38:58 437.465
Cosmos 2504 25 May 18:31:23 18:38:26 64° 93° (E) 18:45:53 435.465 / 435.565
CUTE-I 25 May 18:34:58 18:40:11 63° 73° (ENE) 18:45:27 437.470
HO-68 25 May 18:46:36 18:50:58 18° 52° (NE) 18:55:19 435.675
RS-15 25 May 18:54:05 19:05:26 84° 121° (ESE) 19:17:28 29.354- 29.394
LilacSat-2 25 May 19:00:44 19:04:33 77° 259° (WSW) 19:08:21 437.200
CUBESAT XI-V 25 May 19:05:01 19:09:47 84° 282° (WNW) 19:14:28 437.345
NOAA 18 25 May 19:07:04 19:12:26 56° 259° (W) 19:17:48 137.9125
BRITE-PL 25 May 19:09:25 19:14:58 64° 260° (W) 19:20:40 437.365/2234.400
DOVE 4 25 May 19:09:57 19:14:43 36° 70° (ENE) 19:19:20 437.250
Cubesat XI-IV 25 May 19:28:07 19:33:11 45° 261° (W) 19:38:17 437.490
STRAND 1 25 May 19:28:08 19:30:54 14° 90° (E) 19:33:40 437.568
CUTE 1.7 + AOD 2 25 May 19:29:23 19:31:35 14° 63° (ENE) 19:33:48 437.475
NOAA 15 25 May 19:32:26 19:36:59 29° 265° (W) 19:41:35 137.62
O/OREOS (USA 219) 25 May 19:36:30 19:40:14 25° 57° (ENE) 19:43:55 437.305
PCSat 25 May 19:37:33 19:42:51 50° 54° (NE) 19:48:06 145.827
GOMX 1 25 May 19:46:21 19:51:44 57° 261° (W) 19:57:05 467.674
AUBIESAT-1 25 May 19:52:53 19:56:56 51° 68° (ENE) 20:00:43 437.475
M-CUBED/EXP-1 PRIME 25 May 19:57:18 20:01:33 72° 71° (ENE) 20:05:29 437.505
YUBILEINY 25 May 19:57:22 20:01:42 14° 304° (NW) 20:06:03 435.215
CINEMA 3 25 May 19:58:06 20:02:21 33° 69° (ENE) 20:06:26 145.822/145.860
COMPASS 1 25 May 19:59:17 20:01:43 15° 64° (ENE) 20:04:10 437.405
AAUSAT CUBESAT 2 25 May 20:04:26 20:06:36 14° 63° (ENE) 20:08:46 437.432
BEESAT 2 25 May 20:13:55 20:15:01 11° 35° (NE) 20:16:08 435.950
CUTE-I 25 May 20:17:15 20:20:40 17° 269° (W) 20:24:07 437.470
Cosmos 2504 25 May 20:26:44 20:32:29 25° 295° (WNW) 20:38:30 435.465 / 435.565
HO-68 25 May 20:30:28 20:37:36 81° 72° (ENE) 20:44:47 435.675
CANX-2 25 May 20:35:02 20:39:13 80° 75° (ENE) 20:43:27 2200.000
SEEDS 25 May 20:42:25 20:46:31 61° 75° (ENE) 20:50:40 437.485
CUBESAT XI-V 25 May 20:45:29 20:46:21 10° 302° (WNW) 20:47:13 437.345
DOVE 4 25 May 20:47:50 20:52:24 29° 265° (W) 20:56:51 437.250
BEESAT 3 25 May 20:51:28 20:55:02 31° 48° (NE) 20:58:34 437.485
Oscar 11 25 May 20:58:29 21:01:52 23° 67° (ENE) 21:05:15 145.826/435.025
CUTE 1.7 + AOD 2 25 May 21:02:50 21:06:57 56° 259° (W) 21:11:08 437.475
CUBEBUG 2 25 May 21:02:52 21:07:06 47° 73° (ENE) 21:11:14 437.445
STRAND 1 25 May 21:05:27 21:10:35 71° 287° (WNW) 21:15:42 437.568
ZACube-1 25 May 21:08:09 21:11:38 25° 68° (ENE) 21:15:04 437.345
RS-15 25 May 21:08:51 21:19:24 38° 328° (NNW) 21:30:30 29.354- 29.394
O/OREOS (USA 219) 25 May 21:15:37 21:19:42 34° 254° (WSW) 21:23:44 437.305
PCSat 25 May 21:21:35 21:25:56 25° 252° (WSW) 21:30:14 145.827
AUBIESAT-1 25 May 21:29:23 21:31:36 14° 262° (W) 21:33:46 437.475
AIST 1 25 May 21:30:05 21:33:38 24° 88° (E) 21:37:12
COMPASS 1 25 May 21:32:52 21:36:53 49° 260° (W) 21:40:57 437.405
CINEMA 3 25 May 21:35:24 21:39:28 27° 265° (W) 21:43:24 145.822/145.860
M-CUBED/EXP-1 PRIME 25 May 21:35:37 21:36:23 10° 263° (W) 21:37:09 437.505
UWE-3 25 May 21:36:06 21:40:25 76° 77° (ENE) 21:44:40 435.000/436.395/437.385
HUMSAT D 25 May 21:37:33 21:39:26 13° 63° (ENE) 21:41:18 437.325/437.525
AAUSAT CUBESAT 2 25 May 21:37:36 21:41:37 55° 260° (W) 21:45:42 437.432
PRISM 25 May 21:43:45 21:47:54 59° 101° (E) 21:52:00 437.425
FUNcube-1 25 May 21:46:39 21:50:50 61° 74° (ENE) 21:54:58 145.935
GONETS M04 25 May 21:49:14 21:56:35 31° 83° (E) 22:03:53
BEESAT 2 25 May 21:49:38 21:53:38 69° 55° (NE) 21:57:35 435.950
AIST 2 25 May 22:04:42 22:06:03 11° 35° (NE) 22:07:24 435.215
CUSAT 1 25 May 22:08:33 22:14:09 21° 59° (ENE) 22:19:17 437.405
SEEDS 25 May 22:21:10 22:22:38 12° 271° (W) 22:24:06 437.485
HO-68 25 May 22:21:16 22:26:05 19° 270° (W) 22:30:56 435.675
ISS 25 May 22:22:49 22:25:26 22° 135° (SE) 22:28:04 145.825
DELFI C3 25 May 22:25:49 22:29:46 84° 254° (WSW) 22:33:47 145.870
BEESAT 3 25 May 22:29:20 22:32:37 25° 246° (WSW) 22:35:54 437.485
Oscar 11 25 May 22:33:56 22:37:49 33° 263° (W) 22:41:44 145.826/435.025
CUBEBUG 2 25 May 22:41:12 22:43:58 16° 268° (W) 22:46:41 437.445
ZACube-1 25 May 22:44:07 22:47:49 29° 264° (W) 22:51:30 437.345
ANTELSAT 25 May 22:45:52 22:48:20 15° 91° (E) 22:50:49 437.575/2403.000
STRAND 1 25 May 22:48:24 22:48:49 10° 305° (NW) 22:49:15 437.568
CUBEBUG 1 25 May 22:48:51 22:50:31 12° 60° (ENE) 22:52:11 437.445
VELOX 1 25 May 22:49:54 22:51:42 12° 60° (ENE) 22:53:32 145.980
DX 1 25 May 22:52:41 22:53:52 11° 59° (ENE) 22:55:04 434.975-435.025
AIST 1 25 May 23:07:14 23:11:06 30° 286° (WNW) 23:14:59
HUMSAT D 25 May 23:10:34 23:14:35 58° 259° (W) 23:18:38 437.325/437.525
Cosmos 2499 25 May 23:12:22 23:19:22 57° 91° (E) 23:26:52 435.465 / 435.565
PRISM 25 May 23:20:36 23:22:42 14° 298° (WNW) 23:24:49 437.425
DANDE 25 May 23:23:10 23:30:54 38° 68° (ENE) 23:38:12 436.750
AISAT 25 May 23:23:24 23:27:10 27° 67° (ENE) 23:30:58 437.250
FUNcube-1 25 May 23:25:56 23:27:28 12° 270° (W) 23:28:59 145.935
SPROUT 25 May 23:26:12 23:27:20 11° 60° (ENE) 23:28:29 437.525
RS-15 25 May 23:27:10 23:36:40 26° 3° (N) 23:46:22 29.354- 29.394
BEESAT 2 25 May 23:29:44 23:30:54 11° 252° (WSW) 23:32:03 435.950
50 SAT 25 May 23:37:06 23:40:24 34° 71° (ENE) 23:43:44 437.505
UNISAT 6 25 May 23:39:46 23:44:01 57° 100° (E) 23:48:17 437.425
AIST 2 25 May 23:41:11 23:45:20 67° 54° (NE) 23:49:27 435.215
UKube-1 25 May 23:43:01 23:46:44 29° 68° (ENE) 23:50:28 .
GONETS M04 25 May 23:44:11 23:52:51 60° 283° (WNW) 00:01:31
TIGRISAT 25 May 23:48:04 23:52:19 67° 101° (ESE) 23:56:37 435.000
CUSAT 1 25 May 23:49:32 23:57:32 90° 83° (E) 00:04:16 437.405
POPSAT HIP 1 25 May 23:51:41 23:53:49 14° 91° (E) 23:55:56 437.405
ESTCUBE 1 25 May 23:52:04 23:56:34 74° 75° (ENE) 00:01:06 437.505/2401.250
QB50P1 25 May 23:52:13 23:54:27 14° 91° (E) 23:56:41 145.935-145.965
QB50P2 25 May 23:53:30 23:56:02 15° 92° (E) 23:58:33 145.880/145.840
POLYITAN 1 25 May 23:55:54 23:58:29 16° 92° (E) 00:01:02 437.675
ISS 25 May 23:58:31 00:01:42 48° 333° (NNW) 00:04:53 145.825
PHONESAT 2.4 26 May 00:01:44 00:04:22 25° 159° (SSE) 00:07:01 2401.200-2431.200
NANOSAT C BR1 26 May 00:11:03 00:14:18 22° 94° (E) 00:17:32 145.865
ANTELSAT 26 May 00:21:11 00:25:20 50° 287° (WNW) 00:29:32 437.575/2403.000
CUBEBUG 1 26 May 00:21:44 00:26:10 77° 258° (WSW) 00:30:38 437.445
VELOX 1 26 May 00:23:06 00:27:34 76° 258° (WSW) 00:32:03 145.980
DX 1 26 May 00:25:01 00:29:24 83° 256° (WSW) 00:33:49 434.975-435.025
